DLH2YM EDDF-EDDW

Flight info

Callsign DLH2YM
Flight time 0h 43m
Altitude 22000
Route MARUN6E/07C MARUN Y153 WRB N850 NIE Z88 VERED VERED3P
Aircraft A319/M-SDE2E3FGIJ1LORWXYZ/HB1

Departure

Time 2026-05-07 18:52
Airport Frankfurt Main Airport (EDDF)

Arrival

Time 2026-05-07 19:36
Airport Bremen Airport (EDDW)
Time Latitude Longitude Altitude Speed Heading
2026-05-07 18:25 50.04544 8.56228 356 ft 0 kts 39°
2026-05-07 18:41 50.04536 8.56217 363 ft 0 kts 26°
2026-05-07 18:42 50.04518 8.56213 360 ft 4 kts 350°
2026-05-07 18:42 50.04496 8.56218 362 ft 4 kts 342°
2026-05-07 18:43 50.04481 8.56232 358 ft 4 kts 259°
2026-05-07 18:43 50.04489 8.56269 358 ft 4 kts 250°
2026-05-07 18:43 50.04492 8.56282 359 ft 0 kts 250°
2026-05-07 18:45 50.04489 8.56267 358 ft 4 kts 250°
2026-05-07 18:46 50.04472 8.56198 361 ft 10 kts 249°
2026-05-07 18:46 50.04447 8.56094 359 ft 11 kts 249°
2026-05-07 18:46 50.04395 8.56028 356 ft 10 kts 176°
2026-05-07 18:46 50.04326 8.56069 356 ft 12 kts 156°
2026-05-07 18:47 50.04291 8.56174 356 ft 12 kts 99°
2026-05-07 18:47 50.04222 8.56252 356 ft 14 kts 162°
2026-05-07 18:47 50.04129 8.56267 354 ft 15 kts 217°
2026-05-07 18:47 50.04088 8.56114 355 ft 16 kts 250°
2026-05-07 18:48 50.04047 8.55943 356 ft 18 kts 250°
2026-05-07 18:48 50.04002 8.55755 355 ft 19 kts 249°
2026-05-07 18:48 50.03953 8.55554 349 ft 20 kts 250°
2026-05-07 18:48 50.03905 8.55350 357 ft 20 kts 250°
2026-05-07 18:49 50.03859 8.55156 353 ft 17 kts 250°
2026-05-07 18:49 50.03818 8.54987 352 ft 15 kts 248°
2026-05-07 18:49 50.03781 8.54834 348 ft 13 kts 249°
2026-05-07 18:49 50.03754 8.54720 348 ft 13 kts 250°
2026-05-07 18:50 50.03721 8.54577 350 ft 15 kts 250°
2026-05-07 18:50 50.03681 8.54414 345 ft 18 kts 248°
2026-05-07 18:50 50.03640 8.54311 346 ft 2 kts 186°
2026-05-07 18:50 50.03616 8.54312 348 ft 4 kts 175°
2026-05-07 18:51 50.03583 8.54325 346 ft 6 kts 161°
2026-05-07 18:51 50.03537 8.54352 344 ft 8 kts 158°
2026-05-07 18:51 50.03500 8.54408 346 ft 9 kts 107°
2026-05-07 18:51 50.03515 8.54521 347 ft 21 kts 70°
2026-05-07 18:52 50.03671 8.55175 350 ft 103 kts 69°
2026-05-07 18:52 50.03998 8.56528 412 ft 155 kts 69°
2026-05-07 18:52 50.04384 8.58131 1095 ft 159 kts 69°
2026-05-07 18:52 50.04770 8.59750 1839 ft 165 kts 68°
2026-05-07 18:53 50.05202 8.61549 2306 ft 190 kts 66°
2026-05-07 18:53 50.06069 8.63208 2800 ft 213 kts 28°
2026-05-07 18:53 50.07583 8.63681 3357 ft 239 kts 359°
2026-05-07 18:53 50.09317 8.63594 4183 ft 254 kts 356°
2026-05-07 18:54 50.10507 8.63496 4668 ft 260 kts 356°
2026-05-07 18:54 50.12904 8.63285 4961 ft 261 kts 356°
2026-05-07 18:54 50.14733 8.63132 5467 ft 264 kts 356°
2026-05-07 18:54 50.16580 8.62986 6626 ft 267 kts 356°
2026-05-07 18:55 50.17816 8.62893 7307 ft 270 kts 356°
2026-05-07 18:55 50.19708 8.62759 8322 ft 275 kts 356°
2026-05-07 18:55 50.21639 8.62627 9352 ft 280 kts 356°
2026-05-07 18:55 50.23608 8.62495 10263 ft 289 kts 356°
2026-05-07 18:56 50.25709 8.62350 10709 ft 312 kts 356°
2026-05-07 18:56 50.27916 8.62203 11462 ft 321 kts 356°
2026-05-07 18:56 50.30166 8.62055 12344 ft 327 kts 356°
2026-05-07 18:56 50.32459 8.61904 12905 ft 331 kts 356°
2026-05-07 18:57 50.34797 8.61808 13668 ft 337 kts 358°
2026-05-07 18:57 50.37150 8.61787 13976 ft 339 kts 359°
2026-05-07 18:57 50.39505 8.61805 14066 ft 339 kts 359°
2026-05-07 18:57 50.41864 8.61832 14083 ft 338 kts 359°
2026-05-07 18:58 50.44218 8.61863 14086 ft 338 kts
2026-05-07 18:58 50.46576 8.62170 14087 ft 339 kts
2026-05-07 18:58 50.48920 8.62518 14089 ft 339 kts
2026-05-07 18:58 50.51271 8.62851 14090 ft 339 kts
2026-05-07 18:59 50.53607 8.63175 14579 ft 343 kts
2026-05-07 18:59 50.55735 8.63470 15349 ft 345 kts
2026-05-07 18:59 50.58100 8.64273 16147 ft 350 kts 15°
2026-05-07 18:59 50.60450 8.65342 16944 ft 354 kts 15°
2026-05-07 19:00 50.62869 8.66446 17729 ft 358 kts 14°
2026-05-07 19:00 50.65251 8.67534 18467 ft 362 kts 14°
2026-05-07 19:00 50.67657 8.68635 19123 ft 366 kts 14°
2026-05-07 19:00 50.70120 8.69765 19799 ft 370 kts 14°
2026-05-07 19:01 50.72601 8.70906 20478 ft 374 kts 14°
2026-05-07 19:01 50.75111 8.72060 21160 ft 377 kts 14°
2026-05-07 19:01 50.77654 8.73229 21811 ft 381 kts 14°
2026-05-07 19:01 50.80203 8.74398 22057 ft 383 kts 14°
2026-05-07 19:02 50.82717 8.75555 22100 ft 368 kts 14°
2026-05-07 19:02 50.85133 8.76671 22102 ft 353 kts 14°
2026-05-07 19:02 50.87469 8.77749 22101 ft 348 kts 14°
2026-05-07 19:02 50.89790 8.78823 22104 ft 347 kts 14°
2026-05-07 19:03 50.92106 8.79896 22099 ft 346 kts 14°
2026-05-07 19:03 50.94389 8.80953 22097 ft 346 kts 14°
2026-05-07 19:03 50.96705 8.82026 22102 ft 346 kts 14°
2026-05-07 19:03 50.99019 8.83098 22100 ft 346 kts 14°
2026-05-07 19:04 51.01328 8.84167 22100 ft 346 kts 14°
2026-05-07 19:04 51.03642 8.85238 22103 ft 346 kts 14°
2026-05-07 19:04 51.05958 8.86314 22103 ft 346 kts 14°
2026-05-07 19:04 51.08270 8.87388 22103 ft 346 kts 14°
2026-05-07 19:05 51.10581 8.88464 22105 ft 346 kts 14°
2026-05-07 19:05 51.12902 8.89548 22105 ft 346 kts 14°
2026-05-07 19:05 51.15214 8.90632 22104 ft 346 kts 14°
2026-05-07 19:05 51.17520 8.91711 22103 ft 346 kts 14°
2026-05-07 19:06 51.19833 8.92791 22106 ft 346 kts 14°
2026-05-07 19:06 51.24436 8.94945 22114 ft 346 kts 14°
2026-05-07 19:06 51.26749 8.96029 22112 ft 347 kts 14°
2026-05-07 19:07 51.29056 8.97141 22108 ft 347 kts 18°
2026-05-07 19:07 51.31302 8.98577 22109 ft 348 kts 20°
2026-05-07 19:07 51.33550 9.00042 22106 ft 348 kts 20°
2026-05-07 19:07 51.35796 9.01499 22110 ft 348 kts 20°
2026-05-07 19:08 51.38044 9.02951 22113 ft 348 kts 20°
2026-05-07 19:08 51.40297 9.04406 22114 ft 348 kts 20°
2026-05-07 19:08 51.42540 9.05859 22116 ft 348 kts 20°
2026-05-07 19:08 51.44787 9.07320 22117 ft 348 kts 20°
2026-05-07 19:09 51.47038 9.08784 22122 ft 349 kts 20°
2026-05-07 19:09 51.49287 9.10245 22120 ft 349 kts 19°
2026-05-07 19:09 51.51586 9.11295 22119 ft 347 kts
2026-05-07 19:09 51.53974 9.11814 22119 ft 346 kts
2026-05-07 19:10 51.56362 9.12313 22121 ft 346 kts
2026-05-07 19:10 51.58755 9.12824 22122 ft 346 kts
2026-05-07 19:10 51.61143 9.13339 22121 ft 346 kts
2026-05-07 19:10 51.63534 9.13861 22122 ft 346 kts
2026-05-07 19:11 51.65922 9.14383 22120 ft 346 kts
2026-05-07 19:11 51.68309 9.14905 22119 ft 346 kts
2026-05-07 19:11 51.70700 9.15428 22128 ft 346 kts
2026-05-07 19:11 51.73091 9.15944 22124 ft 346 kts
2026-05-07 19:12 51.75385 9.16436 22125 ft 346 kts
2026-05-07 19:12 51.77764 9.16946 22123 ft 346 kts
2026-05-07 19:12 51.80130 9.17458 22122 ft 346 kts
2026-05-07 19:12 51.82519 9.17980 22121 ft 347 kts
2026-05-07 19:13 51.84904 9.18504 22120 ft 347 kts
2026-05-07 19:13 51.87302 9.19032 22120 ft 347 kts
2026-05-07 19:13 51.89692 9.19564 22121 ft 347 kts
2026-05-07 19:13 51.92091 9.20154 22122 ft 347 kts
2026-05-07 19:14 51.93668 9.20565 22127 ft 347 kts
2026-05-07 19:14 51.94693 9.20837 22128 ft 347 kts
2026-05-07 19:14 51.97080 9.21479 22129 ft 347 kts
2026-05-07 19:14 51.99465 9.22126 22128 ft 347 kts
2026-05-07 19:15 52.01821 9.22761 22127 ft 347 kts
2026-05-07 19:15 52.04213 9.23398 22124 ft 347 kts
2026-05-07 19:15 52.06597 9.23999 22123 ft 347 kts
2026-05-07 19:15 52.08993 9.24486 22122 ft 346 kts
2026-05-07 19:16 52.11389 9.24906 22122 ft 346 kts
2026-05-07 19:16 52.13788 9.25300 22127 ft 346 kts
2026-05-07 19:16 52.16185 9.25694 22133 ft 346 kts
2026-05-07 19:16 52.18580 9.26102 22067 ft 345 kts
2026-05-07 19:17 52.20967 9.26523 21589 ft 344 kts
2026-05-07 19:17 52.23323 9.26949 21141 ft 343 kts
2026-05-07 19:17 52.25679 9.27455 20712 ft 341 kts
2026-05-07 19:17 52.28014 9.28049 20295 ft 339 kts
2026-05-07 19:18 52.30335 9.28684 19888 ft 337 kts
2026-05-07 19:18 52.32641 9.29326 19491 ft 335 kts
2026-05-07 19:18 52.34943 9.29694 19111 ft 330 kts 355°
2026-05-07 19:18 52.37166 9.28910 18732 ft 325 kts 335°
2026-05-07 19:19 52.39062 9.26976 18351 ft 320 kts 317°
2026-05-07 19:19 52.40711 9.24540 17907 ft 319 kts 316°
2026-05-07 19:19 52.42356 9.22096 17472 ft 318 kts 316°
2026-05-07 19:19 52.43989 9.19669 17075 ft 316 kts 316°
2026-05-07 19:20 52.45623 9.17249 16693 ft 315 kts 317°
2026-05-07 19:20 52.47243 9.14851 16324 ft 313 kts 317°
2026-05-07 19:20 52.48857 9.12459 15961 ft 311 kts 317°
2026-05-07 19:20 52.50460 9.10076 15608 ft 310 kts 317°
2026-05-07 19:21 52.52029 9.07738 15263 ft 308 kts 317°
2026-05-07 19:21 52.53612 9.05377 14925 ft 306 kts 317°
2026-05-07 19:21 52.55186 9.03029 14585 ft 304 kts 317°
2026-05-07 19:21 52.56748 9.00697 14241 ft 303 kts 317°
2026-05-07 19:22 52.58306 8.98373 13903 ft 302 kts 317°
2026-05-07 19:22 52.59855 8.96062 13542 ft 300 kts 317°
2026-05-07 19:22 52.61400 8.93758 13160 ft 298 kts 317°
2026-05-07 19:22 52.62934 8.91463 12776 ft 297 kts 317°
2026-05-07 19:23 52.64463 8.89173 12394 ft 296 kts 317°
2026-05-07 19:23 52.65981 8.86895 12033 ft 294 kts 317°
2026-05-07 19:23 52.67493 8.84623 11672 ft 292 kts 317°
2026-05-07 19:23 52.68989 8.82369 11302 ft 291 kts 317°
2026-05-07 19:24 52.70483 8.80119 10931 ft 290 kts 318°
2026-05-07 19:24 52.71964 8.77891 10571 ft 288 kts 318°
2026-05-07 19:24 52.73438 8.75675 10200 ft 286 kts 318°
2026-05-07 19:24 52.74910 8.73459 9802 ft 285 kts 319°
2026-05-07 19:25 52.76373 8.71249 9378 ft 284 kts 318°
2026-05-07 19:25 52.77826 8.69048 8950 ft 283 kts 319°
2026-05-07 19:25 52.79256 8.66880 8523 ft 282 kts 319°
2026-05-07 19:25 52.80698 8.64691 8106 ft 281 kts 319°
2026-05-07 19:26 52.82135 8.62510 7671 ft 280 kts 319°
2026-05-07 19:26 52.83552 8.60360 7154 ft 280 kts 319°
2026-05-07 19:26 52.84993 8.58175 6526 ft 282 kts 319°
2026-05-07 19:26 52.86436 8.55982 5739 ft 287 kts 319°
2026-05-07 19:27 52.87919 8.53728 4968 ft 291 kts 320°
2026-05-07 19:27 52.89417 8.51449 4183 ft 293 kts 319°
2026-05-07 19:27 52.90920 8.49159 3412 ft 294 kts 319°
2026-05-07 19:27 52.92395 8.46904 3085 ft 279 kts 319°
2026-05-07 19:28 52.93777 8.44783 3004 ft 265 kts 319°
2026-05-07 19:28 52.95124 8.42717 3009 ft 264 kts 319°
2026-05-07 19:28 52.96459 8.40673 3006 ft 263 kts 319°
2026-05-07 19:28 52.97776 8.38659 3008 ft 264 kts 319°
2026-05-07 19:29 52.99123 8.36596 3006 ft 263 kts 319°
2026-05-07 19:29 53.00570 8.34767 2997 ft 261 kts 337°
2026-05-07 19:29 53.02319 8.34214 3015 ft 256 kts
2026-05-07 19:29 53.03928 8.35307 3003 ft 252 kts 43°
2026-05-07 19:30 53.04784 8.37774 3011 ft 249 kts 81°
2026-05-07 19:30 53.04550 8.40565 3006 ft 243 kts 114°
2026-05-07 19:30 53.03868 8.42954 2997 ft 214 kts 104°
2026-05-07 19:30 53.03857 8.45249 3007 ft 190 kts 84°
2026-05-07 19:31 53.03929 8.47380 3014 ft 181 kts 88°
2026-05-07 19:31 53.03979 8.49417 3007 ft 177 kts 88°
2026-05-07 19:31 53.04030 8.51464 2999 ft 177 kts 88°
2026-05-07 19:31 53.04081 8.53499 2852 ft 176 kts 88°
2026-05-07 19:32 53.04131 8.55533 2642 ft 176 kts 88°
2026-05-07 19:32 53.04182 8.57564 2412 ft 176 kts 88°
2026-05-07 19:32 53.04231 8.59571 2204 ft 171 kts 88°
2026-05-07 19:32 53.04279 8.61496 1939 ft 162 kts 88°
2026-05-07 19:33 53.04323 8.63288 1728 ft 149 kts 89°
2026-05-07 19:33 53.04363 8.64950 1546 ft 137 kts 90°
2026-05-07 19:33 53.04400 8.66477 1352 ft 128 kts 90°
2026-05-07 19:33 53.04435 8.67927 1182 ft 124 kts 90°
2026-05-07 19:34 53.04469 8.69363 1015 ft 124 kts 90°
2026-05-07 19:34 53.04502 8.70787 848 ft 125 kts 91°
2026-05-07 19:34 53.04544 8.72235 666 ft 126 kts 91°
2026-05-07 19:34 53.04576 8.73683 489 ft 126 kts 91°
2026-05-07 19:35 53.04604 8.75138 323 ft 126 kts 91°
2026-05-07 19:35 53.04635 8.76585 140 ft 125 kts 91°
2026-05-07 19:35 53.04669 8.77983 23 ft 115 kts 89°
2026-05-07 19:35 53.04693 8.79070 20 ft 68 kts 87°
2026-05-07 19:36 53.04708 8.79677 19 ft 38 kts 88°
2026-05-07 19:36 53.04720 8.79896 22 ft 15 kts 62°
2026-05-07 19:36 53.04808 8.79978 19 ft 16 kts 355°
2026-05-07 19:36 53.04873 8.79847 19 ft 16 kts 273°
2026-05-07 19:37 53.04872 8.79629 19 ft 22 kts 268°
2026-05-07 19:37 53.04867 8.79361 19 ft 24 kts 268°
2026-05-07 19:37 53.04860 8.79080 19 ft 25 kts 268°
2026-05-07 19:37 53.04854 8.78849 19 ft 19 kts 266°
2026-05-07 19:38 53.04901 8.78660 19 ft 20 kts 343°
2026-05-07 19:38 53.04981 8.78645 21 ft 11 kts 339°
2026-05-07 19:38 53.05044 8.78565 19 ft 11 kts 317°
2026-05-07 19:38 53.05090 8.78512 19 ft 5 kts
2026-05-07 19:39 53.05112 8.78540 20 ft 1 kts 52°
2026-05-07 19:39 53.05123 8.78561 19 ft 3 kts 49°
2026-05-07 19:39 53.05135 8.78583 19 ft 1 kts 49°
2026-05-07 19:39 53.05136 8.78585 19 ft 0 kts 49°